This is the latest recevied weather packets stored in our database for station/object WX1NWA. If no packets are shown the sender has not sent any weather packets the latest 10 day(s).
| Time | Temp. | Humidity | Pressure | Rain* | Wind** | Luminosity | Snow |
|---|---|---|---|---|---|---|---|
| 1777903154 | 18.33° C | 63% | 1014.9 hPa | 0 mm | - | 367 W/m² | - |
| 1777902850 | 17.78° C | 61% | 1014.9 hPa | 0 mm | - | 329 W/m² | - |
| 1777902549 | 17.78° C | 61% | 1015 hPa | 0 mm | - | 193 W/m² | - |
| 1777902245 | 17.78° C | 63% | 1015 hPa | 0 mm | - | 304 W/m² | - |
| 1777901943 | 17.78° C | 62% | 1015 hPa | 0 mm | - | 231 W/m² | - |
| 1777901641 | 17.22° C | 65% | 1015 hPa | 0 mm | - | 262 W/m² | - |
| 1777901337 | 17.22° C | 63% | 1015 hPa | 0 mm | - | 202 W/m² | - |
| 1777901035 | 17.22° C | 63% | 1015 hPa | 0 mm | - | 226 W/m² | - |
| 1777900733 | 17.22° C | 63% | 1014.9 hPa | 0 mm | - | 177 W/m² | - |
| 1777900430 | 16.67° C | 63% | 1014.7 hPa | 0 mm | - | 255 W/m² | - |
| 1777900127 | 16.67° C | 64% | 1014.9 hPa | 0 mm | - | 158 W/m² | - |
| 1777899824 | 16.67° C | 64% | 1014.7 hPa | 0 mm | - | 175 W/m² | - |
| 1777899520 | 17.22° C | 61% | 1014.6 hPa | 0 mm | - | 164 W/m² | - |
| 1777899218 | 16.67° C | 62% | 1014.6 hPa | 0 mm | - | 193 W/m² | - |
| 1777898915 | 16.67° C | 63% | 1014.8 hPa | 0 mm | - | 183 W/m² | - |
| 1777898612 | 16.67° C | 63% | 1014.7 hPa | 0 mm | - | 107 W/m² | - |
| 1777898309 | 16.67° C | 64% | 1014.7 hPa | 0 mm | - | 90 W/m² | - |
| 1777898007 | 16.67° C | 63% | 1014.9 hPa | 0 mm | - | 115 W/m² | - |
| 1777897703 | 16.67° C | 64% | 1014.6 hPa | 0 mm | - | 95 W/m² | - |
| 1777897400 | 16.67° C | 63% | 1014.5 hPa | 0 mm | - | 86 W/m² | - |
| 1777897095 | 16.67° C | 63% | 1014.7 hPa | 0 mm | - | 88 W/m² | - |
| 1777896792 | 16.11° C | 62% | 1014.4 hPa | 0 mm | - | 69 W/m² | - |
| 1777896489 | 16.11° C | 64% | 1014.1 hPa | 0 mm | - | 56 W/m² | - |
| 1777896186 | 16.11° C | 64% | 1014.4 hPa | 0 mm | - | 47 W/m² | - |
| 1777895884 | 16.11° C | 63% | 1014.1 hPa | 0 mm | - | 39 W/m² | - |
* Rain latest hour (hover to see other rain measurements)
** Current wind speed in m/s (hover to see current wind gust speed)